星链-32257 (STARLINK-32257)

导读

STARLINK-32257是美国SpaceX公司星链互联网星座的成员,于2024年11月30日发射入轨,属于SpaceX打造的低轨全球通信卫星网络。星链卫星采用标准化平板设计,搭载相控阵天线与激光通信终端,依托猎鹰火箭可实现批量发射部署,旨在为全球提供高速低延迟宽带互联网服务,尤其能覆盖地面基础设施难以抵达的偏远区域,单星设计寿命约5-7年,退役后会主动离轨再入大气层烧毁,避免太空垃圾影响。

Basic Information
目录编号:
62171
目录名称:
STARLINK-32257
国际标识:
2024-225J
轨道中心:
EARTH
卫星名称:
星链-32257
卫星全名:
星链-32257 (STARLINK-32257)
卫星状态:
在轨 (已飞行651 天)
发射日期:
2024-11-30 UTC
国别 :
美国 (US)
星等 :
--
This satellite is enrolled in the Space Conjunction Data Service (SCDS) and the current flight risk assessment level is: No High Risk
Orbit Information
数据来源 国际轨道数据 AOE轨道数据
星历时间 2026-09-12T01:11:29+0800
10小时前
查看轨道信息
2026-09-07T02:00:00+0800
5天前
查看轨道信息
半长轴 6950.195km 6950.184km
偏心率 0.00023 0.0002758
轨道倾角 70.002° 69.999°
近地点辐角 260.978° 264.952°
升交点赤经 55.274° 67.795°
平近点角 99.112° 314.510°
近地点 570.459km 570.13km
远地点 573.657km 573.964km
周期 96.107分钟 96.107分钟
每日圈数 14.983295 14.98333
Detailed Information
固有亮度:
5
最大亮度:
2.5
卫星平台:
Starlink V1.0
覆盖范围:
全球
运营商:
太空探索技术公司
运营商所在国:
美国
制造商(研发单位):
太空探索技术公司
制造商所在国:
美国
使用方式:
暂无
Satellite Introduction
Starlink 计划是 SpaceX 推出的全球卫星互联网项目,通过发射低轨道卫星,为全球尤其是偏远地区提供高速、低延迟的互联网服务。自 2019 年起,Starlink 已部署数千颗卫星,旨在缩小全球数字鸿沟,推动互联网普及。该项目还为军事、航空等行业提供通信支持,带来广泛经济效益。
2D Orbit Map
3D Orbit Map
Orbit Altitude Analysis Chart
Orbit Inclination Analysis Chart
Orbit Comprehensive Analysis Chart
View Comprehensive Chart
Conjunction Data List
Event ID Objects TCA Miss Dist (km) Collision Risk Probability Collision Risk Index (CRI) Action
CDM_260913-114605-531706-217121
2026-09-13T
11:46:20+0000
1.795 km
极远距离
3.709305E-6 低风险 0.46
CDM_260912-074206-217106-978621
2026-09-12T
07:42:29+0000
2.125 km
极远距离
2.268704E-6 低风险 0.42
CDM_260913-132205-531706-217121
2026-09-13T
13:22:27+0000
2.228 km
极远距离
2.137565E-6 低风险 0.42
CDM_260913-043305-531706-217121
2026-09-13T
04:33:46+0000
2.854 km
极远距离
1.382788E-6 低风险 0.38
CDM_260906-195605-459806-217123
2026-09-06T
19:56:56+0000
2.622 km
极远距离
1.044928E-6 低风险 0.35
Miss Distance Evolution Trend with All Objects
Collision Probability Evolution Trend with All Objects